Regional Weather Roundup
Issued by NWS Upton, NY

Current Version | Previous Version | Graphics & Text | Print | Product List | Glossary Off
Versions: 1 2 3 4 5 6 7 8 9 10 11 12 13 14 15 16 17 18 19 20 21 22 23 24 25 26 27 28 29 30 31 32 33 34 35 36 37 38 39 40 41 42 43 44 45 46 47 48 49 50

000
ASUS41 KOKX 280405
RWROKX

REGIONAL WEATHER ROUNDUP
NATIONAL WEATHER SERVICE NEW YORK NY
1100 PM EST SAT DEC 27 2014

NOTE: "FAIR" INDICATES FEW OR NO CLOUDS BELOW 12,000 FEET WITH NO
SIGNIFICANT WEATHER AND/OR OBSTRUCTIONS TO VISIBILITY.

NYZ071-072-176-178-NJZ106-104-280500-
NEW YORK CITY METRO AREA


CITY           SKY/WX    TMP DP  RH WIND       PRES   REMARKS
CENTRAL PARK   MOCLDY    50  32  50 VRB6      30.13F
LAGUARDIA APRT MOCLDY    49  35  58 SW7       30.11F
KENNEDY INTL   MOCLDY    44  37  76 SW6       30.13F
NEWARK/LIBERTY CLOUDY    45  36  70 S7        30.12F
BRNX BOT. GARD   N/A     50  34  53 SW5       30.10F
TETERBORO      MOCLDY    42  35  76 S3        30.10F
$$

NYZ177-179-078>081-280500-
LONG ISLAND NEW YORK

CITY           SKY/WX    TMP DP  RH WIND       PRES   REMARKS
FARMINGDALE    PTCLDY    45  39  79 SW6       30.12F
ISLIP          PTCLDY    43  39  86 SW6       30.11F
SHIRLEY        CLEAR     42  40  92 SW3       30.13F
WESTHAMPTON    CLEAR     29  25  85 CALM      30.13F FOG
MONTAUK POINT    N/A     47  40  76 S6        30.12F
$$

NYZ052-065-067-280500-
HUDSON VALLEY

CITY           SKY/WX    TMP DP  RH WIND       PRES   REMARKS
WHITE PLAINS   PTCLDY    45  35  68 CALM      30.09F
NEWBURGH       CLOUDY    46  36  66 CALM      30.08F
MONTGOMERY     CLOUDY    41  36  82 SW6       30.07F
POUGHKEEPSIE   CLOUDY    40  35  83 CALM      30.07F
ALBANY         CLOUDY    47  34  60 S16G23    29.98F
$$

NJZ001-105-106-008-010-013-015-019>022-104-280500-
NEW JERSEY

CITY           SKY/WX    TMP DP  RH WIND       PRES   REMARKS
NEWARK/LIBERTY CLOUDY    45  36  70 S7        30.12F
TETERBORO      MOCLDY    42  35  76 S3        30.10F
CALDWELL       MOCLDY    40  33  76 CALM      30.10F
MORRISTOWN     CLOUDY    37  32  81 CALM      30.10F
SOMERVILLE     PTCLDY    34  30  85 CALM      30.09F
SUSSEX         MOCLDY    37  33  85 CALM      30.08F
ANDOVER        NOT AVBL
TRENTON        PTCLDY    42  31  64 CALM      30.10F
MILLVILLE      PTCLDY    38  36  92 S3        30.13F
ATLANTIC CITY  PTCLDY    43  40  89 S5        30.14F
WRIGHTSTOWN    PTCLDY    40  38  93 S3        30.10F
TOMS RIVER     PTCLDY    34  30  86 CALM      30.13F
BELMAR         PTCLDY    43  34  70 SW6       30.11F
$$

PAZ047>061-062-071-280500-
EASTERN PENNSYLVANIA

CITY           SKY/WX    TMP DP  RH WIND       PRES   REMARKS
PHILADELPHIA   MOCLDY    42  35  76 S5        30.13F
ALLENTOWN      PTCLDY    37  31  78 N3        30.09F
SCRANTON       MOCLDY    46  32  58 S5        30.04F
$$

CTZ002-004>006-009-010-012-RIZ004-006-007-MAZ004-011-015-280500-
SOUTHERN NEW ENGLAND
 IN CT

CITY           SKY/WX    TMP DP  RH WIND       PRES   REMARKS
BRADLEY INTL   MOCLDY    42  33  70 S9        30.06F
HARTFORD       MOCLDY    41  33  73 S3        30.08F
DANBURY        CLOUDY    40  31  70 CALM      30.09F
WTRBRY/OXFORD  CLOUDY    43  30  61 SW5       30.09F
BRIDGEPORT     PTCLDY    40  38  93 SW3       30.10F
MERIDEN        PTCLDY    36  32  85 S5        30.09F WCI  32
NEW HAVEN      CLEAR     45  38  76 SW3       30.10F
CHESTER        FAIR      43  36  75 SW7       30.10F
GROTON         CLEAR     33  32  96 CALM      30.10F FOG
WILLIMANTIC    CLEAR     33  30  88 CALM      30.09F

 IN RI

CITY           SKY/WX    TMP DP  RH WIND       PRES   REMARKS
PROVIDENCE     PTCLDY    39  32  76 SW3       30.10F
BLOCK ISLAND   CLEAR     46  37  71 SW10      30.11F
WESTERLY       CLEAR     34  32  92 CALM      30.11F

 IN MA

CITY           SKY/WX    TMP DP  RH WIND       PRES   REMARKS
BOSTON         CLOUDY    44  33  65 SW14      30.06F
WORCESTER      MOCLDY    39  32  76 SW12      30.04F WCI  32
WESTFIELD      CLOUDY    40  34  79 SW7       30.06F
PROVINCETOWN   PTCLDY    43  37  81 SW8       30.09F
NANTUCKET      CLEAR     41  39  93 W8        30.12F
$$

ANZ330-335-338-340-345-350-353-355-280500-
COASTAL MARINE OBSERVATIONS


STATION/POSITION TIME  SKY/WX   TEMP    WIND        PRES    VSBY  WAVE
                                AIR SEA DIR/SP/G                  HT/PER
                 (UTC)          (F)     (DEG/KT/KT) (MB)    (MI)  (FT/S)
NY HARB ENTRANCE 0400            46 45  220/ 10/ 12 1020.1          3/14
4S FIRE IS       0400               47                N/A           3/14
20S FIRE ISLAND  0300            50 49              1021.0          3/14
23SW MTP         0400                                 N/A           3/14
HUDSON CANYON    0400            54 55  240/ 14/ 17 1020.8          4/14
EXECUTION ROCKS  0400            47 42  200/ 10/ 12   N/A
WESTERN LI SOUND 0400            46     210/  8/  8   N/A           0
CENTRAL LI SOUND 0400            45 44  230/ 12/ 14   N/A           1/ 2
EASTERN LI SOUND NOT AVBL
ROBBINS REEF     0400            49                 1018.5
$$


>>>>>>>>>>>>>>>>>>>>>>>>>>>> KEY <<<<<<<<<<<<<<<<<<<<<<<<<<<
>                                                          <
>     SKY/WX - SKY CONDITION/PRESENT WEATHER               <
>     TMP    - TEMPERATURE IN FAHRENHEIT                   <
>     DP     - DEWPOINT IN FAHRENHEIT                      <
>     RH     - RELATIVE HUMIDITY IN PERCENT                <
>     WIND   - DIRECTION AND SPEED IN MPH                  <
>     PRES   - MEAN SEA LEVEL PRESSURE IN INCHES OF HG     <
>     WCI    - WIND CHILL INDEX                            <
>     VSB    - VISIBILITY IN MILES                         <
>     HX     - HEAT INDEX                                  <
>     TC     - TEMPERATURE IN CELSIUS                      <
>     VRB    - VARIABLE WIND DIRECTION                     <
>                                                          <
>>>>>>>>>>>>>>>>>>>>>>>>>>>> KEY <<<<<<<<<<<<<<<<<<<<<<<<<<<




USA.gov is the U.S. government's official web portal to all federal, state and local government web resources and services.